Temperature
16 15 15 14 14 13 13 13 12 12 12 12 11 11 11 11 11 11 11 11 11 11 10 10 11 11 11 11 11 11 11 12 12 12 12 13 13 13 13 13 13 13 14
16 15 15 14 14 13 13 12 12 12 12 11 11 11 11 11 11 11 11 11 10 10 10 10 10 10 10 10 10 10 11 11 11 11 12 12 12 12 13 13 13 13 13
16 16 15 14 14 13 13 12 12 12 12 12 11 11 11 11 11 11 11 10 10 10 10 10 10 10 10 10 10 10 10 11 11 11 11 11 12 12 12 13 13 13 13
16 16 15 14 14 13 13 12 12 12 12 12 11 11 11 11 11 11 11 10 10 10 10 10 10 10 10 10 10 10 10 10 10 10 11 11 11 12 12 13 13 13 13
16 16 15 15 14 13 13 13 12 12 12 12 11 11 11 11 11 11 11 10 10 10 10 10 10 10 10 10 10 10 10 10 10 10 10 11 11 12 12 12 12 13 13
16 15 15 14 14 14 13 13 13 12 12 12 12 11 11 11 11 11 11 10 10 10 10 10 10 9 10 10 10 10 10 10 10 10 10 10 11 11 11 12 12 12 12
16 15 15 15 14 14 13 13 13 12 12 12 12 11 11 11 11 11 10 10 10 10 10 9 9 9 9 10 10 9 10 9 9 9 9 10 10 11 11 11 11 11 11
16 16 15 15 14 14 14 13 13 13 12 12 12 12 11 11 11 10 10 10 10 10 10 9 9 9 9 9 9 9 9 9 9 9 9 10 10 10 10 10 10 11 11
16 16 15 15 15 14 14 13 13 13 13 12 12 12 11 11 11 10 10 10 10 9 9 9 9 9 9 9 9 9 9 9 9 9 9 9 10 10 10 10 10 10 10
17 16 16 15 15 14 14 14 13 13 13 12 12 12 11 11 11 11 10 10 9 9 9 9 9 9 9 9 9 9 9 9 9 9 9 9 9 9 10 9 9 9 10
17 16 16 15 15 14 14 14 13 13 12 12 12 12 12 12 11 11 10 10 10 9 9 9 9 9 9 9 8 8 8 8 8 8 8 9 9 9 9 10 10 10 10
17 16 16 15 15 14 14 14 13 13 12 12 12 12 12 12 11 11 11 10 10 9 9 9 8 8 8 8 8 8 8 8 8 8 8 8 8 9 9 9 10 10 10
16 16 15 15 15 14 14 13 13 13 12 12 12 12 12 12 11 11 11 10 9 9 9 9 8 8 8 8 8 8 8 8 8 7 7 8 8 9 9 9 10 10 10
16 16 15 15 15 14 14 13 13 13 13 12 12 12 12 12 11 11 10 10 9 9 8 8 8 8 8 8 8 8 8 8 8 7 7 8 8 9 9 9 9 9 10
15 15 15 14 14 14 14 14 13 13 13 13 12 12 12 11 11 11 10 10 9 9 8 8 8 8 8 8 8 8 8 8 8 8 8 8 8 8 9 9 9 9 9
15 14 14 14 14 14 14 14 14 14 13 13 13 12 12 12 11 11 10 10 10 9 9 9 8 8 8 8 8 8 8 8 8 8 8 8 8 8 8 9 9 9 9
14 14 14 13 14 14 14 14 14 14 13 13 13 12 12 12 11 11 10 10 9 9 9 9 8 8 8 8 8 8 8 8 8 8 8 8 8 8 8 8 9 9 9
13 13 13 13 13 13 13 13 13 13 13 13 13 13 12 12 11 11 10 10 10 9 9 9 8 8 8 8 8 8 8 8 8 8 8 8 8 8 8 8 9 9 9
13 12 12 13 13 13 13 13 13 13 13 13 13 13 12 12 11 11 10 10 10 9 9 9 9 9 9 9 9 9 9 9 8 8 8 8 8 8 8 8 9 9 9
12 12 12 12 12 13 13 13 13 13 13 13 12 12 12 11 11 11 10 10 10 9 9 9 9 9 9 9 9 8 8 9 8 8 8 8 8 8 8 8 9 9 9
11 12 12 12 12 12 12 13 13 13 13 12 12 12 12 11 11 11 10 10 10 9 9 9 9 9 9 8 8 8 8 8 9 8 8 8 8 8 8 9 9 9 9
11 11 11 12 12 12 12 12 12 12 12 12 12 11 11 11 11 11 10 10 9 9 9 9 8 8 8 8 8 8 8 8 8 9 9 9 9 9 9 9 9 9 9
10 10 11 11 11 12 12 12 12 12 12 11 11 11 11 11 10 10 10 10 9 9 9 8 8 8 8 8 8 8 8 8 8 8 8 8 8 9 9 9 9 9 9
9 10 10 10 11 11 11 11 11 11 11 11 11 11 10 10 10 10 9 9 9 9 8 8 8 8 8 8 8 8 8 8 8 8 8 8 8 9 9 9 9 9 9
9 9 10 10 10 10 10 11 11 10 10 10 10 10 10 10 10 9 9 9 8 8 8 8 8 8 8 7 7 7 8 8 8 8 8 8 8 9 9 9 9 9 9
9 9 9 9 9 9 10 10 10 10 10 10 9 9 9 9 9 9 9 8 8 8 8 8 7 7 7 7 7 7 7 7 8 8 8 8 8 8 9 9 9 9 9
Wind_Speed
5 4 2 2 3 3 4 5 5 5 5 6 6 6 7 7 7 7 7 8 8 8 8 8 8 8 7 6 6 6 6 6 8 7 6 5 5 5 4 5 8 9 10
6 5 4 4 4 5 6 5 4 5 5 6 6 6 7 8 7 7 8 8 8 8 8 9 8 8 8 7 7 7 7 7 7 9 7 6 7 7 6 6 6 9 9
6 6 5 5 5 5 5 5 5 6 6 6 7 7 7 8 8 8 8 8 8 8 9 9 9 9 9 7 8 8 7 9 7 7 8 6 6 6 6 7 7 5 8
6 5 5 5 5 4 5 5 5 6 6 7 7 7 7 8 8 8 8 7 8 8 9 9 9 9 9 9 8 8 8 8 8 8 8 7 7 7 6 6 6 5 6
5 5 5 4 4 4 5 5 6 6 8 7 7 7 7 8 9 6 5 8 7 8 8 9 10 11 12 10 10 7 7 6 7 7 8 7 7 6 5 4 5 4 5
6 5 5 4 4 5 5 6 6 6 6 6 7 8 8 10 4 3 4 7 8 9 9 9 10 11 13 15 16 15 12 10 9 8 8 8 7 6 5 5 4 4 4
7 6 5 5 5 5 6 5 5 6 6 7 7 8 8 8 9 9 9 7 9 9 10 9 12 13 11 8 10 15 16 17 16 11 11 11 9 7 6 6 6 6 5
8 7 7 6 6 5 5 6 6 5 6 6 7 8 8 10 10 10 10 9 10 10 11 11 11 11 13 10 9 9 9 10 13 13 12 13 12 9 7 7 7 8 7
9 8 7 6 5 5 6 6 6 6 6 7 8 8 9 9 9 11 10 7 9 10 11 11 11 10 11 11 8 9 9 9 12 15 15 15 16 14 9 5 6 6 7
8 7 6 5 6 6 6 6 6 6 7 8 8 8 9 9 9 11 12 8 9 9 8 9 11 10 9 7 7 8 9 9 9 10 9 12 13 13 14 11 9 9 7
6 6 6 6 6 7 7 6 6 7 8 9 9 9 10 11 11 13 13 8 8 8 8 7 6 4 6 8 8 8 10 9 8 9 9 9 9 9 10 11 11 11 10
5 6 6 6 7 7 6 7 7 8 9 9 10 10 9 8 9 10 14 14 11 8 8 8 6 4 6 9 9 11 12 10 8 9 9 9 9 9 9 10 11 12 10
6 6 6 6 6 7 7 8 8 8 9 9 8 7 6 4 4 9 12 14 14 10 9 11 11 12 11 11 15 16 12 9 9 10 10 10 8 8 8 8 9 10 10
6 6 6 7 8 8 8 9 9 8 7 7 7 6 5 5 3 1 3 6 9 10 9 10 13 16 14 14 12 10 9 10 10 10 9 9 7 7 7 7 7 7 7
6 6 7 9 10 9 9 9 10 9 9 8 7 6 6 7 3 2 3 5 5 4 5 7 9 9 8 8 9 9 9 9 10 10 10 9 8 7 7 6 7 7 8
6 8 9 8 8 8 8 9 13 15 14 16 15 12 9 10 8 8 8 8 8 5 4 8 10 10 9 9 8 8 8 9 9 9 9 9 8 8 7 7 7 7 8
7 8 8 9 9 9 8 9 8 9 13 16 17 17 17 15 13 12 11 9 10 6 6 10 11 10 9 8 8 8 8 8 7 8 8 8 8 8 7 7 7 7 8
8 10 10 10 10 10 10 9 8 8 7 7 11 17 18 18 17 16 11 5 8 8 9 10 10 9 9 8 8 8 7 7 7 7 8 8 8 8 8 8 8 8 8
10 10 10 11 10 11 10 10 10 9 8 7 6 6 12 15 15 14 9 7 10 10 9 8 8 8 8 7 7 7 7 7 7 7 7 8 8 8 8 8 8 10 9
10 14 13 12 12 11 10 10 9 8 7 6 6 6 4 5 6 7 8 9 10 10 9 8 7 7 7 7 7 7 7 7 7 7 7 7 8 8 9 9 8 8 8
12 12 12 11 11 11 10 10 9 8 7 6 6 6 5 6 7 7 5 6 7 7 7 7 7 7 7 6 6 7 8 7 6 7 7 7 7 7 8 8 9 9 8
12 13 12 11 10 10 9 9 9 8 8 8 6 6 6 6 7 6 5 4 4 4 5 6 7 7 6 6 6 5 6 6 6 6 6 6 6 7 7 8 8 8 8
13 14 13 12 11 10 9 10 9 8 6 6 6 5 3 4 5 4 3 3 3 4 4 5 6 6 5 4 4 5 5 5 5 5 5 5 5 6 6 7 9 9 9
15 15 14 12 11 10 9 7 6 6 6 6 4 3 3 3 4 4 3 3 4 4 4 5 5 6 7 5 3 3 3 5 6 5 6 5 5 5 5 6 7 9 9
15 14 12 11 10 10 8 7 6 5 5 4 3 3 4 4 4 4 3 2 4 4 5 5 4 5 5 5 4 3 5 6 6 6 6 6 6 6 6 7 7 7 8
14 13 11 10 9 9 8 7 5 5 4 3 3 3 3 3 3 3 3 3 4 4 4 5 5 5 5 4 4 4 4 5 6 7 6 6 6 5 5 4 6 7 8
Wind_Direction
200 196 216 234 258 268 264 263 265 270 276 277 276 276 278 276 273 266 263 265 264 263 264 264 258 256 260 269 274 272 266 262 269 276 277 281 279 272 260 249 260 250 248
191 185 199 215 233 248 263 271 276 274 272 273 273 275 276 278 277 273 271 275 272 269 265 265 266 265 255 254 262 269 270 270 269 274 276 274 270 265 251 237 247 252 247
182 183 198 213 230 243 257 268 272 273 275 278 278 277 276 277 276 275 272 271 271 272 271 268 265 263 263 255 254 260 267 270 267 268 271 266 263 262 261 252 247 242 253
181 192 205 216 231 244 255 262 266 270 274 273 272 273 273 275 275 272 274 276 275 274 273 270 267 262 260 258 258 253 257 264 270 270 269 266 263 257 251 243 249 237 242
184 208 218 220 228 241 251 257 259 264 274 277 279 279 277 276 274 281 288 287 291 292 286 280 273 267 258 255 259 257 262 263 267 269 269 268 263 262 263 255 255 251 241
193 216 222 225 236 244 250 254 258 262 270 274 276 279 279 283 291 280 271 291 290 285 283 280 280 273 261 246 242 244 245 253 260 266 272 272 276 284 288 286 278 269 263
196 214 223 226 235 244 262 268 271 273 274 273 274 275 276 277 265 250 246 262 274 275 276 277 280 280 284 269 249 242 243 244 242 249 260 265 272 281 298 298 291 284 276
201 211 220 226 236 241 251 260 264 270 275 276 276 276 274 274 263 241 239 250 267 269 268 267 267 269 274 273 273 263 252 248 241 240 244 251 256 263 267 274 277 279 271
208 211 218 224 234 242 251 257 263 266 269 271 273 270 270 271 255 234 230 258 266 270 270 271 269 267 263 255 256 261 263 262 259 249 235 237 239 243 246 263 268 266 268
212 210 212 218 230 243 252 257 264 265 269 273 272 271 274 275 259 233 221 251 268 276 277 275 273 269 262 241 247 259 264 267 273 277 261 251 247 244 235 233 242 251 256
212 210 211 217 225 236 243 245 252 261 267 270 274 273 269 264 254 231 218 235 260 277 285 288 290 280 252 241 247 258 264 274 279 275 269 258 249 242 237 229 224 230 238
212 219 222 222 238 250 242 246 248 253 261 263 264 266 264 258 245 229 214 220 242 265 276 282 288 279 258 254 254 256 261 266 266 264 262 257 247 242 237 231 224 221 223
221 226 231 236 237 245 251 254 254 251 256 261 266 272 275 274 244 219 213 221 231 244 265 278 287 277 269 262 253 251 253 252 251 253 255 255 249 244 240 236 233 227 223
228 231 235 241 244 243 241 250 256 257 259 265 272 279 288 289 284 214 220 235 240 246 261 274 272 263 255 255 262 252 239 240 242 248 253 255 252 247 242 234 233 224 224
233 242 248 250 250 249 246 244 247 248 248 251 262 269 276 280 271 195 265 285 294 319 318 288 281 274 264 254 249 246 240 234 237 242 248 251 251 248 243 233 231 227 222
247 252 258 260 260 259 258 261 243 238 240 232 234 243 255 255 248 237 244 253 261 266 278 274 275 275 272 268 263 259 250 242 240 238 238 243 246 246 243 235 229 227 225
259 267 270 272 273 273 270 270 271 255 238 235 236 239 240 250 254 254 256 263 262 235 247 263 267 269 271 270 268 266 260 250 241 240 239 240 241 242 239 235 228 224 223
270 271 268 267 267 268 269 270 269 267 265 255 238 235 237 241 248 252 252 264 267 239 243 256 264 269 270 270 269 267 262 255 245 238 237 237 235 236 237 234 227 221 220
285 278 274 274 272 272 272 271 268 266 265 267 273 246 228 238 245 249 230 237 257 267 268 268 269 272 273 271 270 267 262 254 246 239 237 236 232 230 232 232 227 222 217
288 279 276 279 278 274 272 272 270 268 268 271 276 278 250 227 243 239 220 228 245 259 269 277 280 278 278 275 269 267 266 258 249 242 239 235 231 229 230 229 226 221 214
303 298 283 275 275 274 274 276 275 273 274 275 273 272 264 267 272 269 251 234 245 264 275 281 284 284 278 275 269 265 267 266 257 247 241 235 231 229 227 227 224 219 211
309 304 300 290 283 279 280 280 275 272 277 281 277 267 232 251 271 277 281 282 284 281 288 291 292 291 289 285 282 277 275 274 269 259 247 240 233 232 228 224 221 214 208
311 306 302 298 293 283 274 274 274 275 276 276 276 279 266 270 277 282 291 306 309 301 302 298 296 299 303 306 303 298 294 298 296 280 265 255 245 237 232 226 218 207 204
310 303 299 298 298 294 293 288 283 283 282 283 289 298 300 294 293 295 306 315 308 308 315 311 304 308 315 320 323 334 341 331 321 306 294 276 261 250 241 233 223 208 203
307 305 306 306 304 301 301 300 295 293 292 292 300 303 293 289 296 297 303 308 311 314 321 317 311 314 320 334 345 350 347 336 327 320 304 286 270 257 245 233 226 213 201
309 309 312 315 313 313 310 304 297 293 296 302 304 298 301 308 311 322 333 332 325 323 327 320 323 333 340 343 347 348 338 327 319 310 297 282 272 264 255 241 232 217 200
Height
1522 1523 1523 1522 1522 1521 1521 1520 1519 1518 1517 1516 1515 1514 1513 1512 1511 1510 1509 1508 1508 1507 1506 1505 1505 1504 1504 1504 1504 1504 1504 1503 1502 1501 1501 1500 1499 1499 1498 1497 1496 1496 1496
1520 1520 1520 1519 1519 1518 1518 1517 1516 1515 1514 1513 1512 1511 1509 1508 1507 1506 1505 1504 1503 1502 1502 1501 1500 1500 1499 1498 1498 1498 1498 1498 1497 1495 1495 1495 1494 1494 1493 1492 1491 1491 1490
1517 1517 1517 1516 1516 1515 1514 1514 1513 1512 1511 1509 1508 1507 1506 1504 1503 1502 1501 1500 1499 1497 1496 1496 1495 1494 1493 1493 1493 1492 1492 1493 1492 1491 1490 1490 1490 1489 1488 1487 1487 1486 1485
1514 1514 1514 1513 1513 1512 1511 1510 1509 1508 1507 1506 1504 1503 1501 1500 1499 1498 1496 1495 1494 1492 1491 1490 1489 1488 1488 1487 1487 1487 1487 1487 1486 1486 1485 1484 1484 1484 1484 1483 1481 1481 1480
1510 1511 1510 1510 1510 1509 1508 1507 1506 1505 1503 1502 1501 1499 1498 1496 1495 1494 1492 1491 1489 1487 1485 1484 1483 1482 1482 1481 1481 1481 1481 1481 1480 1480 1480 1479 1479 1479 1479 1478 1477 1476 1475
1506 1507 1507 1507 1506 1505 1504 1503 1502 1501 1500 1498 1496 1495 1493 1492 1491 1489 1487 1485 1483 1481 1479 1477 1476 1476 1475 1475 1474 1474 1475 1475 1474 1474 1474 1474 1474 1474 1474 1473 1473 1472 1471
1503 1503 1503 1503 1502 1502 1501 1500 1498 1497 1495 1494 1492 1490 1488 1487 1485 1483 1482 1479 1477 1475 1473 1471 1469 1469 1469 1469 1468 1467 1467 1467 1468 1468 1467 1467 1467 1468 1468 1468 1467 1467 1466
1499 1499 1499 1499 1498 1498 1496 1495 1494 1492 1491 1489 1487 1485 1483 1482 1480 1478 1476 1474 1471 1469 1467 1465 1464 1463 1462 1462 1461 1461 1460 1460 1460 1460 1460 1460 1461 1462 1463 1463 1462 1462 1461
1494 1495 1495 1494 1494 1493 1492 1490 1489 1487 1486 1484 1482 1480 1478 1477 1475 1473 1471 1468 1465 1463 1462 1460 1459 1457 1456 1455 1455 1454 1453 1453 1453 1453 1453 1453 1454 1455 1456 1457 1457 1457 1456
1490 1490 1490 1490 1489 1488 1487 1486 1484 1483 1481 1479 1477 1476 1474 1471 1470 1467 1466 1463 1460 1458 1457 1455 1454 1452 1451 1450 1449 1448 1447 1446 1447 1446 1446 1446 1446 1447 1448 1449 1450 1451 1451
1486 1486 1486 1485 1484 1483 1482 1481 1479 1478 1476 1474 1472 1470 1468 1466 1464 1462 1460 1458 1456 1453 1451 1450 1448 1446 1445 1444 1442 1441 1440 1440 1439 1439 1438 1438 1439 1439 1440 1441 1442 1443 1444
1482 1482 1481 1480 1479 1479 1477 1476 1474 1472 1470 1468 1466 1464 1463 1461 1459 1456 1455 1453 1451 1448 1446 1444 1442 1440 1439 1437 1436 1435 1434 1433 1432 1431 1431 1431 1431 1432 1433 1434 1435 1436 1437
1477 1477 1476 1475 1474 1473 1472 1470 1469 1467 1465 1463 1462 1460 1458 1457 1454 1451 1449 1447 1445 1442 1440 1438 1436 1434 1432 1430 1429 1428 1427 1426 1425 1425 1424 1424 1425 1426 1427 1427 1428 1430 1431
1472 1471 1470 1469 1468 1467 1466 1465 1463 1462 1460 1459 1457 1455 1453 1451 1449 1446 1444 1441 1439 1436 1434 1432 1430 1428 1426 1424 1422 1421 1420 1419 1418 1418 1417 1418 1419 1420 1420 1421 1422 1423 1425
1467 1466 1464 1463 1462 1461 1459 1458 1456 1455 1454 1452 1451 1449 1447 1445 1443 1441 1439 1436 1434 1431 1428 1426 1424 1422 1420 1418 1416 1415 1414 1413 1412 1411 1411 1412 1413 1413 1414 1415 1417 1418 1419
1462 1461 1460 1458 1456 1455 1453 1451 1449 1448 1446 1445 1444 1443 1440 1439 1437 1435 1433 1430 1428 1426 1423 1420 1418 1416 1414 1412 1411 1409 1408 1407 1405 1405 1405 1406 1406 1407 1408 1409 1410 1412 1413
1457 1456 1454 1453 1451 1449 1447 1445 1443 1441 1440 1438 1437 1436 1434 1432 1431 1429 1427 1425 1422 1420 1417 1414 1412 1410 1409 1407 1405 1403 1401 1400 1399 1399 1399 1399 1400 1400 1402 1403 1404 1405 1407
1452 1450 1448 1446 1444 1442 1440 1439 1437 1435 1433 1432 1430 1429 1427 1426 1424 1423 1421 1419 1416 1414 1411 1409 1407 1405 1403 1401 1399 1397 1396 1394 1393 1392 1392 1392 1393 1394 1395 1396 1398 1399 1401
1447 1445 1442 1440 1438 1436 1434 1432 1430 1428 1427 1425 1424 1423 1421 1419 1418 1417 1415 1413 1410 1408 1407 1404 1402 1400 1398 1396 1394 1392 1390 1389 1388 1387 1386 1386 1387 1388 1389 1390 1392 1393 1396
1441 1439 1436 1434 1431 1429 1427 1426 1424 1422 1421 1419 1418 1417 1415 1414 1412 1411 1409 1407 1405 1403 1400 1398 1396 1394 1392 1390 1388 1386 1385 1384 1382 1381 1381 1381 1381 1382 1383 1384 1386 1388 1390
1436 1433 1430 1427 1424 1422 1420 1419 1417 1416 1414 1413 1412 1411 1410 1409 1407 1406 1404 1402 1400 1398 1395 1393 1391 1388 1386 1384 1382 1381 1380 1378 1377 1376 1376 1376 1376 1377 1378 1379 1380 1382 1384
1431 1428 1425 1422 1418 1416 1414 1412 1411 1410 1408 1407 1406 1405 1404 1403 1402 1400 1399 1397 1395 1393 1390 1388 1385 1383 1381 1379 1378 1376 1375 1374 1373 1372 1371 1371 1371 1372 1373 1374 1375 1377 1379
1427 1423 1419 1416 1413 1410 1407 1406 1405 1403 1402 1402 1401 1400 1399 1398 1397 1395 1394 1392 1390 1388 1385 1383 1380 1378 1376 1375 1373 1372 1371 1369 1369 1368 1368 1367 1367 1367 1368 1369 1370 1372 1374
1422 1418 1414 1411 1407 1405 1402 1400 1399 1398 1397 1396 1396 1395 1394 1393 1392 1391 1389 1387 1386 1384 1381 1379 1376 1374 1372 1371 1369 1368 1366 1365 1365 1364 1363 1363 1363 1363 1364 1365 1366 1367 1369
1417 1413 1409 1406 1402 1400 1397 1395 1394 1393 1392 1392 1391 1390 1390 1389 1388 1387 1386 1384 1382 1380 1378 1375 1373 1371 1369 1367 1365 1364 1362 1361 1360 1360 1359 1359 1359 1360 1360 1360 1362 1363 1365
1412 1408 1405 1401 1398 1395 1393 1391 1390 1389 1388 1387 1387 1387 1386 1385 1385 1383 1382 1381 1379 1377 1374 1372 1370 1367 1365 1364 1362 1360 1359 1357 1356 1356 1355 1356 1356 1356 1356 1357 1358 1360 1362